Location: Newark
(40.7636°N, 73.9728°W)
Time: 21:23:38
(UTC+00:00)

ISS - Pass Details

Date: 29 September 2019
Orbit: 411 x 421 km, 51.6° (Epoch: 20 October)

Event Time Altitude Azimuth Distance (km) Brightness Sun altitude
Rises 23:56:28 0° 299° (WNW) 2,345 1.5 -14.6°
Reaches altitude 10° 23:59:31 10° 329° (NNW) 1,482 -0.4 -15.2°
Maximum altitude 00:01:05 13° 358° (N) 1,327 -1.1 -15.5°
Drops below altitude 10° 00:02:39 10° 26° (NNE) 1,482 -1.1 -15.8°
Enters shadow 00:02:59 - 31° (NNE) 1,546 -1.1 -15.9°
